,,,PA_Meas_PMT16A,,PR_Meas_QMR101_102,,RH_Meas_QMH101,,SR_Meas_QMS101,,TA_Meas_QMH101,,GenWind,,GenWind,
date,time,status,PA,status,PR,status,RH,status,SR,status,TA,status,DirAvg,status,SpdAvg,
2009-07-13, 00:00:04,VALID,1003.58,VALID,0,VALID,91.7831,VALID,0,VALID,24.9495,VALID,8,VALID,0.201562,
2009-07-13, 00:01:04,VALID,1003.53,VALID,0,VALID,91.7678,VALID,0,VALID,24.9087,VALID,8,VALID,0.251953,
2009-07-13, 00:02:04,VALID,1003.55,VALID,0,VALID,91.722,VALID,0,VALID,24.9106,VALID,8,VALID,0.300391,
2009-07-13, 00:03:04,VALID,1003.52,VALID,0,VALID,91.7449,VALID,0,VALID,24.8697,VALID,8,VALID,0.00117188,
2009-07-13, 00:04:04,VALID,1003.49,VALID,0,VALID,91.7373,VALID,0,VALID,24.8289,VALID,8,VALID,0.399219,
2009-07-13, 00:05:04,VALID,1003.5,VALID,0,VALID,91.7525,VALID,0,VALID,24.8522,VALID,29,VALID,0.364844,
2009-07-13, 00:06:04,VALID,1003.51,VALID,0,VALID,91.867,VALID,0,VALID,24.8308,VALID,29,VALID,0.208984,
2009-07-13, 00:07:04,VALID,1003.5,VALID,0,VALID,91.9128,VALID,0,VALID,24.7919,VALID,29,VALID,0.385156,
2009-07-13, 00:08:04,VALID,1003.46,VALID,0,VALID,91.989,VALID,0,VALID,24.7919,VALID,29,VALID,0.433984,
2009-07-13, 00:09:04,VALID,1003.48,VALID,0,VALID,92.1035,VALID,0,VALID,24.8113,VALID,29,VALID,0.349219,
2009-07-13, 00:10:04,VALID,1003.48,VALID,0,VALID,92.1721,VALID,0,VALID,24.8132,VALID,29,VALID,0,
2009-07-13, 00:11:04,VALID,1003.5,VALID,0,VALID,92.3095,VALID,0,VALID,24.8132,VALID,29,VALID,0.145313,
2009-07-13, 00:12:04,VALID,1003.49,VALID,0,VALID,92.3247,VALID,0,VALID,24.7919,VALID,29,VALID,0,
2009-07-13, 00:13:04,VALID,1003.48,VALID,0,VALID,92.3247,VALID,0,VALID,24.7919,VALID,29,VALID,0,
2009-07-13, 00:14:04,VALID,1003.47,VALID,0,VALID,92.3781,VALID,0,VALID,24.7919,VALID,29,VALID,0,
2009-07-13, 00:15:04,VALID,1003.47,VALID,0,VALID,92.4468,VALID,0,VALID,24.8113,VALID,29,VALID,0,
2009-07-13, 00:16:04,VALID,1003.46,VALID,0,VALID,92.4239,VALID,0,VALID,24.8132,VALID,29,VALID,0.198047,
2009-07-13, 00:17:04,VALID,1003.44,VALID,0,VALID,92.4239,VALID,0,VALID,24.7919,VALID,29,VALID,0.411719,
2009-07-13, 00:18:04,VALID,1003.48,VALID,0,VALID,92.462,VALID,0,VALID,24.7937,VALID,29,VALID,0.238281,
2009-07-13, 00:19:04,VALID,1003.45,VALID,0,VALID,92.4849,VALID,0,VALID,24.7743,VALID,29,VALID,0.187109,
2009-07-13, 00:20:04,VALID,1003.46,VALID,0,VALID,92.5536,VALID,0,VALID,24.7529,VALID,29,VALID,0.237109,
2009-07-13, 00:21:04,VALID,1003.42,VALID,0,VALID,92.546,VALID,0,VALID,24.7548,VALID,29,VALID,0.0285156,
2009-07-13, 00:22:04,VALID,1003.4,VALID,0,VALID,92.5688,VALID,0,VALID,24.7548,VALID,29,VALID,0.405859,
2009-07-13, 00:23:04,VALID,1003.39,VALID,0,VALID,92.5536,VALID,0,VALID,24.714,VALID,29,VALID,0.346875,
2009-07-13, 00:24:04,VALID,1003.38,VALID,0,VALID,92.607,VALID,0,VALID,24.6945,VALID,29,VALID,0.0824219,
2009-07-13, 00:25:04,VALID,1003.34,VALID,0,VALID,92.6604,VALID,0,VALID,24.714,VALID,29,VALID,0,
2009-07-13, 00:26:04,VALID,1003.32,VALID,0,VALID,92.6756,VALID,0,VALID,24.714,VALID,29,VALID,0,
2009-07-13, 00:27:04,VALID,1003.29,VALID,0,VALID,92.6985,VALID,0,VALID,24.714,VALID,29,VALID,0,
2009-07-13, 00:28:04,VALID,1003.31,VALID,0,VALID,92.7062,VALID,0,VALID,24.7335,VALID,29,VALID,0,
2009-07-13, 00:29:04,VALID,1003.27,VALID,0,VALID,92.729,VALID,0,VALID,24.714,VALID,29,VALID,0,
2009-07-13, 00:30:04,VALID,1003.27,VALID,0,VALID,92.7824,VALID,0,VALID,24.7335,VALID,29,VALID,0,
2009-07-13, 00:31:04,VALID,1003.25,VALID,0,VALID,92.7824,VALID,0,VALID,24.7335,VALID,29,VALID,0,
2009-07-13, 00:32:04,VALID,1003.24,VALID,0,VALID,92.7596,VALID,0,VALID,24.7335,VALID,29,VALID,0,
2009-07-13, 00:33:04,VALID,1003.25,VALID,0,VALID,92.7824,VALID,0,VALID,24.7335,VALID,29,VALID,0,
2009-07-13, 00:34:04,VALID,1003.24,VALID,0,VALID,92.7824,VALID,0,VALID,24.7353,VALID,29,VALID,0,
2009-07-13, 00:35:04,VALID,1003.23,VALID,0,VALID,92.8282,VALID,0,VALID,24.7548,VALID,29,VALID,0,
2009-07-13, 00:36:04,VALID,1003.24,VALID,0,VALID,92.8358,VALID,0,VALID,24.7353,VALID,29,VALID,0,
2009-07-13, 00:37:04,VALID,1003.22,VALID,0,VALID,92.8358,VALID,0,VALID,24.6945,VALID,29,VALID,0,
2009-07-13, 00:38:04,VALID,1003.21,VALID,0,VALID,92.8969,VALID,0,VALID,24.675,VALID,29,VALID,0,
2009-07-13, 00:39:04,VALID,1003.2,VALID,0,VALID,92.9884,VALID,0,VALID,24.6769,VALID,29,VALID,0.455469,
2009-07-13, 00:40:04,VALID,1003.19,VALID,0,VALID,93.08,VALID,0,VALID,24.675,VALID,29,VALID,0.292188,
2009-07-13, 00:41:04,VALID,1003.19,VALID,0,VALID,93.1029,VALID,0,VALID,24.6556,VALID,29,VALID,0.311328,
2009-07-13, 00:42:04,VALID,1003.18,VALID,0,VALID,93.1029,VALID,0,VALID,24.6556,VALID,29,VALID,0.187109,
2009-07-13, 00:43:04,VALID,1003.19,VALID,0,VALID,93.1105,VALID,0,VALID,24.6769,VALID,29,VALID,0.242188,
2009-07-13, 00:44:04,VALID,1003.17,VALID,0,VALID,93.0952,VALID,0,VALID,24.6556,VALID,29,VALID,0.0105469,
2009-07-13, 00:45:04,VALID,1003.15,VALID,0,VALID,93.1334,VALID,0,VALID,24.6556,VALID,29,VALID,0,
2009-07-13, 00:46:04,VALID,1003.14,VALID,0,VALID,93.1486,VALID,0,VALID,24.6342,VALID,29,VALID,0.245703,
2009-07-13, 00:47:04,VALID,1003.14,VALID,0,VALID,93.202,VALID,0,VALID,24.6361,VALID,29,VALID,0,
2009-07-13, 00:48:04,VALID,1003.12,VALID,0,VALID,93.1791,VALID,0,VALID,24.6361,VALID,29,VALID,0,
2009-07-13, 00:49:04,VALID,1003.11,VALID,0,VALID,93.1715,VALID,0,VALID,24.638,VALID,29,VALID,0,
2009-07-13, 00:50:04,VALID,1003.09,VALID,0,VALID,93.1639,VALID,0,VALID,24.6185,VALID,29,VALID,0.0921875,
2009-07-13, 00:51:04,VALID,1003.08,VALID,0,VALID,93.1791,VALID,0,VALID,24.5972,VALID,29,VALID,0,
2009-07-13, 00:52:04,VALID,1003.08,VALID,0,VALID,93.2097,VALID,0,VALID,24.599,VALID,29,VALID,0,
2009-07-13, 00:53:04,VALID,1003.06,VALID,0,VALID,93.2554,VALID,0,VALID,24.599,VALID,29,VALID,0,
2009-07-13, 00:54:04,VALID,1003.05,VALID,0,VALID,93.2554,VALID,0.100563,VALID,24.5582,VALID,29,VALID,0,
2009-07-13, 00:55:04,VALID,1003.02,VALID,0,VALID,93.2783,VALID,0,VALID,24.5388,VALID,29,VALID,0,
2009-07-13, 00:56:04,VALID,1003.04,VALID,0,VALID,93.3317,VALID,0,VALID,24.5388,VALID,29,VALID,0,
2009-07-13, 00:57:04,VALID,1003.01,VALID,0,VALID,93.3394,VALID,0,VALID,24.5193,VALID,29,VALID,0,
2009-07-13, 00:58:04,VALID,1003,VALID,0,VALID,93.3622,VALID,0,VALID,24.5406,VALID,29,VALID,0,
2009-07-13, 00:59:04,VALID,1002.99,VALID,0,VALID,93.4233,VALID,0,VALID,24.5193,VALID,29,VALID,0,
2009-07-13, 01:00:04,VALID,1002.99,VALID,0,VALID,93.4538,VALID,0,VALID,24.5193,VALID,29,VALID,0,
2009-07-13, 01:01:04,VALID,1002.96,VALID,0,VALID,93.469,VALID,0,VALID,24.5193,VALID,29,VALID,0,
2009-07-13, 01:02:04,VALID,1002.92,VALID,0,VALID,93.5301,VALID,0,VALID,24.4998,VALID,29,VALID,0,
2009-07-13, 01:03:04,VALID,1002.93,VALID,0,VALID,93.5072,VALID,0,VALID,24.4998,VALID,29,VALID,0,
2009-07-13, 01:04:04,VALID,1002.9,VALID,0,VALID,93.4919,VALID,0.100563,VALID,24.4998,VALID,29,VALID,0,
2009-07-13, 01:05:04,VALID,1002.9,VALID,0,VALID,93.4614,VALID,0,VALID,24.4804,VALID,29,VALID,0,
2009-07-13, 01:06:04,VALID,1002.87,VALID,0,VALID,93.469,VALID,0,VALID,24.4609,VALID,29,VALID,0,
2009-07-13, 01:07:04,VALID,1002.87,VALID,0,VALID,93.469,VALID,0,VALID,24.4609,VALID,29,VALID,0,
2009-07-13, 01:08:04,VALID,1002.85,VALID,0,VALID,93.4919,VALID,0,VALID,24.4414,VALID,29,VALID,0,
2009-07-13, 01:09:04,VALID,1002.84,VALID,0,VALID,93.4538,VALID,0,VALID,24.422,VALID,29,VALID,0,
2009-07-13, 01:10:04,VALID,1002.84,VALID,0,VALID,93.4996,VALID,0,VALID,24.422,VALID,29,VALID,0,
2009-07-13, 01:11:04,VALID,1002.83,VALID,0,VALID,93.5301,VALID,0,VALID,24.422,VALID,25,VALID,0,
2009-07-13, 01:12:04,VALID,1002.81,VALID,0,VALID,93.5301,VALID,0,VALID,24.4025,VALID,24,VALID,0,
2009-07-13, 01:13:04,VALID,1002.82,VALID,0,VALID,93.6216,VALID,0,VALID,24.383,VALID,18,VALID,0,
2009-07-13, 01:14:04,VALID,1002.8,VALID,0,VALID,93.6292,VALID,0,VALID,24.4025,VALID,18,VALID,0,
2009-07-13, 01:15:04,VALID,1002.79,VALID,0,VALID,93.6445,VALID,0,VALID,24.383,VALID,18,VALID,0,
2009-07-13, 01:16:04,VALID,1002.76,VALID,0,VALID,93.6445,VALID,0,VALID,24.383,VALID,18,VALID,0,
2009-07-13, 01:17:04,VALID,1002.71,VALID,0,VALID,93.6598,VALID,0,VALID,24.3636,VALID,18,VALID,0,
2009-07-13, 01:18:04,VALID,1002.72,VALID,0,VALID,93.6598,VALID,0.100563,VALID,24.3849,VALID,18,VALID,0,
2009-07-13, 01:19:04,VALID,1002.71,VALID,0,VALID,93.675,VALID,0,VALID,24.3636,VALID,18,VALID,0,
2009-07-13, 01:20:04,VALID,1002.7,VALID,0,VALID,93.7055,VALID,0,VALID,24.3636,VALID,18,VALID,0,
2009-07-13, 01:21:04,VALID,1002.68,VALID,0,VALID,93.7208,VALID,0,VALID,24.3849,VALID,18,VALID,0,
2009-07-13, 01:22:04,VALID,1002.67,VALID,0,VALID,93.7666,VALID,0.100563,VALID,24.383,VALID,18,VALID,0,
2009-07-13, 01:23:04,VALID,1002.68,VALID,0,VALID,93.7742,VALID,0.100563,VALID,24.4043,VALID,17,VALID,0,
2009-07-13, 01:24:04,VALID,1002.64,VALID,0,VALID,93.7284,VALID,0.100563,VALID,24.3636,VALID,17,VALID,0,
2009-07-13, 01:25:04,VALID,1002.63,VALID,0,VALID,93.6903,VALID,0.100563,VALID,24.3228,VALID,17,VALID,0,
2009-07-13, 01:26:04,VALID,1002.62,VALID,0,VALID,93.6903,VALID,0.100563,VALID,24.3228,VALID,17,VALID,0,
2009-07-13, 01:27:04,VALID,1002.62,VALID,0,VALID,93.6979,VALID,0,VALID,24.3459,VALID,16,VALID,0,
2009-07-13, 01:28:04,VALID,1002.63,VALID,0,VALID,93.675,VALID,0,VALID,24.307,VALID,16,VALID,0,
2009-07-13, 01:29:04,VALID,1002.62,VALID,0,VALID,93.675,VALID,0,VALID,24.3265,VALID,16,VALID,0,
2009-07-13, 01:30:04,VALID,1002.6,VALID,0,VALID,93.6979,VALID,0,VALID,24.3265,VALID,16,VALID,0,
2009-07-13, 01:31:04,VALID,1002.57,VALID,0,VALID,93.7055,VALID,0,VALID,24.3265,VALID,16,VALID,0,
2009-07-13, 01:32:04,VALID,1002.58,VALID,0,VALID,93.7132,VALID,0,VALID,24.3265,VALID,16,VALID,0,
2009-07-13, 01:33:04,VALID,1002.53,VALID,0,VALID,93.7208,VALID,0,VALID,24.307,VALID,16,VALID,0,
2009-07-13, 01:34:04,VALID,1002.56,VALID,0,VALID,93.7361,VALID,0,VALID,24.307,VALID,16,VALID,0,
2009-07-13, 01:35:04,VALID,1002.56,VALID,0,VALID,93.7361,VALID,0,VALID,24.2875,VALID,16,VALID,0,
2009-07-13, 01:36:04,VALID,1002.57,VALID,0,VALID,93.7513,VALID,0,VALID,24.2681,VALID,16,VALID,0,
2009-07-13, 01:37:04,VALID,1002.56,VALID,0,VALID,93.7589,VALID,0,VALID,24.2875,VALID,16,VALID,0,
2009-07-13, 01:38:04,VALID,1002.59,VALID,0,VALID,93.8429,VALID,0,VALID,24.3088,VALID,16,VALID,0,
2009-07-13, 01:39:04,VALID,1002.58,VALID,0,VALID,93.8429,VALID,0,VALID,24.2662,VALID,16,VALID,0,
2009-07-13, 01:40:04,VALID,1002.57,VALID,0,VALID,93.8505,VALID,0,VALID,24.307,VALID,16,VALID,0,
2009-07-13, 01:41:04,VALID,1002.56,VALID,0,VALID,93.82,VALID,0,VALID,24.307,VALID,16,VALID,0,
2009-07-13, 01:42:04,VALID,1002.55,VALID,0,VALID,93.82,VALID,0,VALID,24.3052,VALID,16,VALID,0,
2009-07-13, 01:43:04,VALID,1002.56,VALID,0,VALID,93.82,VALID,0,VALID,24.3052,VALID,16,VALID,0,
2009-07-13, 01:44:04,VALID,1002.51,VALID,0,VALID,93.8123,VALID,0,VALID,24.3265,VALID,16,VALID,0,
2009-07-13, 01:45:04,VALID,1002.52,VALID,0,VALID,93.8123,VALID,0,VALID,24.3246,VALID,16,VALID,0,
2009-07-13, 01:46:04,VALID,1002.49,VALID,0,VALID,93.7971,VALID,0.100563,VALID,24.3052,VALID,15,VALID,0,
2009-07-13, 01:47:04,VALID,1002.51,VALID,0,VALID,93.7666,VALID,0,VALID,24.3265,VALID,14,VALID,0,
2009-07-13, 01:48:04,VALID,1002.54,VALID,0,VALID,93.8047,VALID,0,VALID,24.3265,VALID,14,VALID,0,
2009-07-13, 01:49:04,VALID,1002.54,VALID,0,VALID,93.7971,VALID,0,VALID,24.2839,VALID,14,VALID,0,
2009-07-13, 01:50:04,VALID,1002.5,VALID,0,VALID,93.7361,VALID,0,VALID,24.3052,VALID,14,VALID,0,
2009-07-13, 01:51:04,VALID,1002.48,VALID,0,VALID,93.7361,VALID,0,VALID,24.3052,VALID,14,VALID,0,
2009-07-13, 01:52:04,VALID,1002.47,VALID,0,VALID,93.7284,VALID,0,VALID,24.3265,VALID,14,VALID,0,
2009-07-13, 01:53:04,VALID,1002.47,VALID,0,VALID,93.7437,VALID,0,VALID,24.307,VALID,14,VALID,0,
2009-07-13, 01:54:04,VALID,1002.46,VALID,0,VALID,93.7437,VALID,0,VALID,24.2857,VALID,14,VALID,0,
2009-07-13, 01:55:04,VALID,1002.45,VALID,0,VALID,93.7971,VALID,0,VALID,24.2857,VALID,14,VALID,0,
2009-07-13, 01:56:04,VALID,1002.42,VALID,0,VALID,93.7971,VALID,0,VALID,24.2857,VALID,14,VALID,0,
2009-07-13, 01:57:04,VALID,1002.42,VALID,0,VALID,93.82,VALID,0,VALID,24.307,VALID,14,VALID,0,
2009-07-13, 01:58:04,VALID,1002.43,VALID,0,VALID,93.7971,VALID,0,VALID,24.2857,VALID,14,VALID,0,
2009-07-13, 01:59:04,VALID,1002.44,VALID,0,VALID,93.8276,VALID,0.100563,VALID,24.3265,VALID,14,VALID,0,
2009-07-13, 02:00:04,VALID,1002.43,VALID,0,VALID,93.7971,VALID,0,VALID,24.3052,VALID,14,VALID,0,
2009-07-13, 02:01:04,VALID,1002.41,VALID,0,VALID,93.7818,VALID,0,VALID,24.307,VALID,14,VALID,0,
2009-07-13, 02:02:04,VALID,1002.41,VALID,0,VALID,93.7818,VALID,0,VALID,24.3052,VALID,14,VALID,0,
2009-07-13, 02:03:04,VALID,1002.4,VALID,0,VALID,93.7742,VALID,0,VALID,24.3052,VALID,14,VALID,0,
2009-07-13, 02:04:04,VALID,1002.39,VALID,0,VALID,93.7589,VALID,0,VALID,24.3052,VALID,14,VALID,0,
2009-07-13, 02:05:04,VALID,1002.4,VALID,0,VALID,93.7513,VALID,0,VALID,24.3265,VALID,14,VALID,0,
2009-07-13, 02:06:04,VALID,1002.37,VALID,0,VALID,93.7437,VALID,0,VALID,24.3052,VALID,14,VALID,0,
2009-07-13, 02:07:04,VALID,1002.36,VALID,0,VALID,93.7132,VALID,0,VALID,24.2857,VALID,14,VALID,0,
2009-07-13, 02:08:04,VALID,1002.33,VALID,0,VALID,93.6826,VALID,0,VALID,24.2662,VALID,14,VALID,0,
2009-07-13, 02:09:04,VALID,1002.33,VALID,0,VALID,93.6826,VALID,0,VALID,24.2662,VALID,14,VALID,0,
2009-07-13, 02:10:04,VALID,1002.31,VALID,0,VALID,93.7742,VALID,0,VALID,24.2857,VALID,14,VALID,0,
2009-07-13, 02:11:04,VALID,1002.29,VALID,0,VALID,93.8276,VALID,0,VALID,24.2857,VALID,14,VALID,0,
2009-07-13, 02:12:04,VALID,1002.27,VALID,0,VALID,93.7971,VALID,0,VALID,24.2857,VALID,14,VALID,0,
2009-07-13, 02:13:04,VALID,1002.23,VALID,0,VALID,93.7589,VALID,0,VALID,24.3265,VALID,13,VALID,0,
2009-07-13, 02:14:04,VALID,1002.21,VALID,0,VALID,93.7284,VALID,0,VALID,24.3052,VALID,2,VALID,0,
2009-07-13, 02:15:04,VALID,1002.21,VALID,0,VALID,93.7055,VALID,0,VALID,24.3052,VALID,2,VALID,0,
2009-07-13, 02:16:04,VALID,1002.21,VALID,0,VALID,93.7055,VALID,0,VALID,24.3052,VALID,2,VALID,0,
2009-07-13, 02:17:04,VALID,1002.18,VALID,0,VALID,93.6445,VALID,0,VALID,24.2857,VALID,2,VALID,0,
2009-07-13, 02:18:04,VALID,1002.19,VALID,0,VALID,93.7284,VALID,0,VALID,24.2857,VALID,2,VALID,0,
2009-07-13, 02:19:04,VALID,1002.2,VALID,0,VALID,93.7055,VALID,0,VALID,24.3052,VALID,2,VALID,0,
2009-07-13, 02:20:04,VALID,1002.2,VALID,0,VALID,93.7055,VALID,0,VALID,24.3265,VALID,357,VALID,0,
2009-07-13, 02:21:04,VALID,1002.18,VALID,0,VALID,93.7055,VALID,0,VALID,24.307,VALID,357,VALID,0,
2009-07-13, 02:22:04,VALID,1002.2,VALID,0,VALID,93.675,VALID,0,VALID,24.2857,VALID,357,VALID,0,
2009-07-13, 02:23:04,VALID,1002.2,VALID,0,VALID,93.6903,VALID,0,VALID,24.2662,VALID,357,VALID,0,
2009-07-13, 02:24:04,VALID,1002.2,VALID,0,VALID,93.7284,VALID,0,VALID,24.2662,VALID,357,VALID,0,
2009-07-13, 02:25:04,VALID,1002.19,VALID,0,VALID,93.6903,VALID,0,VALID,24.2662,VALID,357,VALID,0,
2009-07-13, 02:26:04,VALID,1002.21,VALID,0,VALID,93.7208,VALID,0.100563,VALID,24.2255,VALID,357,VALID,0,
2009-07-13, 02:27:04,VALID,1002.21,VALID,0,VALID,93.7589,VALID,0,VALID,24.2486,VALID,357,VALID,0,
2009-07-13, 02:28:04,VALID,1002.19,VALID,0,VALID,93.7742,VALID,0,VALID,24.2291,VALID,357,VALID,0,
2009-07-13, 02:29:04,VALID,1002.2,VALID,0,VALID,93.7666,VALID,0,VALID,24.2486,VALID,357,VALID,0,
2009-07-13, 02:30:04,VALID,1002.2,VALID,0,VALID,93.7818,VALID,0,VALID,24.2699,VALID,357,VALID,0,
2009-07-13, 02:31:04,VALID,1002.18,VALID,0,VALID,93.8047,VALID,0,VALID,24.2486,VALID,357,VALID,0,
2009-07-13, 02:32:04,VALID,1002.19,VALID,0,VALID,93.82,VALID,0,VALID,24.2486,VALID,357,VALID,0,
2009-07-13, 02:33:04,VALID,1002.2,VALID,0,VALID,93.8352,VALID,0,VALID,24.2486,VALID,357,VALID,0,
2009-07-13, 02:34:04,VALID,1002.2,VALID,0,VALID,93.8657,VALID,0,VALID,24.2699,VALID,357,VALID,0,
2009-07-13, 02:35:04,VALID,1002.18,VALID,0,VALID,93.881,VALID,0,VALID,24.2486,VALID,357,VALID,0,
2009-07-13, 02:36:04,VALID,1002.2,VALID,0,VALID,93.8734,VALID,0,VALID,24.2486,VALID,357,VALID,0,
2009-07-13, 02:37:04,VALID,1002.21,VALID,0,VALID,93.8429,VALID,0,VALID,24.2291,VALID,357,VALID,0,
2009-07-13, 02:38:04,VALID,1002.21,VALID,0,VALID,93.8581,VALID,0,VALID,24.2291,VALID,357,VALID,0,
2009-07-13, 02:39:04,VALID,1002.22,VALID,0,VALID,93.8581,VALID,0,VALID,24.2097,VALID,357,VALID,0,
2009-07-13, 02:40:04,VALID,1002.17,VALID,0,VALID,93.8657,VALID,0,VALID,24.231,VALID,357,VALID,0,
2009-07-13, 02:41:04,VALID,1002.2,VALID,0,VALID,93.8123,VALID,0,VALID,24.2097,VALID,357,VALID,0,
2009-07-13, 02:42:04,VALID,1002.2,VALID,0,VALID,93.7513,VALID,0,VALID,24.2078,VALID,357,VALID,0,
2009-07-13, 02:43:04,VALID,1002.2,VALID,0,VALID,93.7055,VALID,0,VALID,24.2078,VALID,357,VALID,0,
2009-07-13, 02:44:04,VALID,1002.2,VALID,0,VALID,93.6369,VALID,0,VALID,24.1902,VALID,357,VALID,0,
2009-07-13, 02:45:04,VALID,1002.19,VALID,0,VALID,93.6216,VALID,0.100563,VALID,24.1902,VALID,357,VALID,0,
2009-07-13, 02:46:04,VALID,1002.18,VALID,0,VALID,93.5987,VALID,0,VALID,24.1689,VALID,357,VALID,0,
2009-07-13, 02:47:04,VALID,1002.18,VALID,0,VALID,93.6064,VALID,0,VALID,24.1902,VALID,357,VALID,0,
2009-07-13, 02:48:04,VALID,1002.2,VALID,0,VALID,93.5987,VALID,0,VALID,24.1884,VALID,357,VALID,0,
2009-07-13, 02:49:04,VALID,1002.18,VALID,0,VALID,93.5758,VALID,0,VALID,24.1671,VALID,357,VALID,0,
2009-07-13, 02:50:04,VALID,1002.18,VALID,0,VALID,93.5224,VALID,0.100563,VALID,24.2078,VALID,357,VALID,0,
2009-07-13, 02:51:04,VALID,1002.15,VALID,0,VALID,93.4767,VALID,0,VALID,24.2078,VALID,357,VALID,0,
2009-07-13, 02:52:04,VALID,1002.17,VALID,0,VALID,93.4767,VALID,0,VALID,24.2078,VALID,357,VALID,0,
2009-07-13, 02:53:04,VALID,1002.15,VALID,0,VALID,93.4309,VALID,0,VALID,24.2078,VALID,357,VALID,0,
2009-07-13, 02:54:04,VALID,1002.17,VALID,0,VALID,93.4233,VALID,0,VALID,24.2078,VALID,357,VALID,0,
2009-07-13, 02:55:04,VALID,1002.14,VALID,0,VALID,93.4309,VALID,0.100563,VALID,24.2078,VALID,357,VALID,0,
2009-07-13, 02:56:04,VALID,1002.14,VALID,0,VALID,93.4156,VALID,0,VALID,24.2078,VALID,357,VALID,0,
2009-07-13, 02:57:04,VALID,1002.14,VALID,0,VALID,93.3699,VALID,0,VALID,24.1902,VALID,358,VALID,0,
2009-07-13, 02:58:04,VALID,1002.15,VALID,0,VALID,93.347,VALID,0,VALID,24.1902,VALID,325,VALID,0,
2009-07-13, 02:59:04,VALID,1002.14,VALID,0,VALID,93.3622,VALID,0,VALID,24.1689,VALID,327,VALID,0,
2009-07-13, 03:00:04,VALID,1002.13,VALID,0,VALID,93.3394,VALID,0,VALID,24.192,VALID,327,VALID,0,
2009-07-13, 03:01:04,VALID,1002.16,VALID,0,VALID,93.3851,VALID,0,VALID,24.1707,VALID,327,VALID,0,
2009-07-13, 03:02:04,VALID,1002.13,VALID,0,VALID,93.408,VALID,0,VALID,24.1707,VALID,327,VALID,0,
2009-07-13, 03:03:04,VALID,1002.11,VALID,0,VALID,93.4004,VALID,0,VALID,24.1513,VALID,327,VALID,0,
2009-07-13, 03:04:04,VALID,1002.16,VALID,0,VALID,93.3928,VALID,0,VALID,24.1513,VALID,327,VALID,0,
2009-07-13, 03:05:04,VALID,1002.15,VALID,0,VALID,93.4004,VALID,0,VALID,24.1318,VALID,327,VALID,0,
2009-07-13, 03:06:04,VALID,1002.13,VALID,0,VALID,93.408,VALID,0,VALID,24.1336,VALID,327,VALID,0,
2009-07-13, 03:07:04,VALID,1002.13,VALID,0,VALID,93.3851,VALID,0,VALID,24.1142,VALID,327,VALID,0,
2009-07-13, 03:08:04,VALID,1002.11,VALID,0,VALID,93.4233,VALID,0,VALID,24.1123,VALID,327,VALID,0,
2009-07-13, 03:09:04,VALID,1002.1,VALID,0,VALID,93.4385,VALID,0,VALID,24.0929,VALID,327,VALID,0,
2009-07-13, 03:10:04,VALID,1002.1,VALID,0,VALID,93.4233,VALID,0,VALID,24.0929,VALID,327,VALID,0,
2009-07-13, 03:11:04,VALID,1002.07,VALID,0,VALID,93.408,VALID,0,VALID,24.0929,VALID,327,VALID,0,
2009-07-13, 03:12:04,VALID,1002.06,VALID,0,VALID,93.3851,VALID,0.100563,VALID,24.091,VALID,327,VALID,0,
2009-07-13, 03:13:04,VALID,1002.05,VALID,0,VALID,93.408,VALID,0,VALID,24.1123,VALID,327,VALID,0,
2009-07-13, 03:14:04,VALID,1002.02,VALID,0,VALID,93.3851,VALID,0,VALID,24.091,VALID,327,VALID,0,
2009-07-13, 03:15:04,VALID,1002.02,VALID,0,VALID,93.3394,VALID,0,VALID,24.091,VALID,327,VALID,0,
2009-07-13, 03:16:04,VALID,1002.05,VALID,0,VALID,93.3165,VALID,0,VALID,24.0734,VALID,327,VALID,0,
2009-07-13, 03:17:04,VALID,1002.02,VALID,0,VALID,93.3088,VALID,0,VALID,24.0521,VALID,327,VALID,0,
2009-07-13, 03:18:04,VALID,1001.98,VALID,0,VALID,93.3241,VALID,0,VALID,24.0521,VALID,327,VALID,0,
2009-07-13, 03:19:04,VALID,1001.99,VALID,0,VALID,93.3851,VALID,0,VALID,24.0326,VALID,327,VALID,0,
2009-07-13, 03:20:04,VALID,1001.96,VALID,0,VALID,93.4156,VALID,0,VALID,24.0326,VALID,327,VALID,0,
2009-07-13, 03:21:04,VALID,1001.97,VALID,0,VALID,93.4538,VALID,0,VALID,24.0539,VALID,327,VALID,0,
2009-07-13, 03:22:04,VALID,1001.96,VALID,0,VALID,93.4843,VALID,0,VALID,24.0132,VALID,327,VALID,0,
2009-07-13, 03:23:04,VALID,1001.96,VALID,0,VALID,93.5301,VALID,0,VALID,23.9937,VALID,327,VALID,0,
2009-07-13, 03:24:04,VALID,1001.96,VALID,0,VALID,93.5301,VALID,0,VALID,23.9937,VALID,327,VALID,0,
2009-07-13, 03:25:04,VALID,1001.95,VALID,0,VALID,93.5301,VALID,0,VALID,24.0132,VALID,327,VALID,0,
2009-07-13, 03:26:04,VALID,1001.96,VALID,0,VALID,93.4996,VALID,0,VALID,23.9955,VALID,327,VALID,0,
2009-07-13, 03:27:04,VALID,1001.99,VALID,0,VALID,93.5148,VALID,0,VALID,23.9548,VALID,327,VALID,0,
2009-07-13, 03:28:04,VALID,1001.99,VALID,0,VALID,93.5072,VALID,0,VALID,23.9548,VALID,327,VALID,0,
2009-07-13, 03:29:04,VALID,1001.97,VALID,0,VALID,93.5224,VALID,0,VALID,23.9353,VALID,327,VALID,0,
2009-07-13, 03:30:04,VALID,1001.98,VALID,0,VALID,93.5758,VALID,0,VALID,23.9353,VALID,327,VALID,0,
2009-07-13, 03:31:04,VALID,1001.99,VALID,0,VALID,93.5987,VALID,0,VALID,23.9548,VALID,327,VALID,0,
2009-07-13, 03:32:04,VALID,1001.97,VALID,0,VALID,93.6216,VALID,0,VALID,23.9353,VALID,327,VALID,0,
2009-07-13, 03:33:04,VALID,1001.99,VALID,0,VALID,93.6674,VALID,0.100563,VALID,23.9353,VALID,327,VALID,0,
2009-07-13, 03:34:04,VALID,1001.98,VALID,0,VALID,93.6369,VALID,0,VALID,23.9159,VALID,327,VALID,0,
2009-07-13, 03:35:04,VALID,1001.97,VALID,0,VALID,93.6598,VALID,0,VALID,23.9177,VALID,327,VALID,0,
2009-07-13, 03:36:04,VALID,1001.98,VALID,0,VALID,93.6674,VALID,0,VALID,23.9177,VALID,327,VALID,0,
2009-07-13, 03:37:04,VALID,1001.99,VALID,0,VALID,93.6903,VALID,0,VALID,23.8982,VALID,327,VALID,0,
2009-07-13, 03:38:04,VALID,1001.98,VALID,0,VALID,93.6674,VALID,0,VALID,23.8964,VALID,327,VALID,0,
2009-07-13, 03:39:04,VALID,1001.97,VALID,0,VALID,93.6903,VALID,0,VALID,23.8982,VALID,327,VALID,0,
2009-07-13, 03:40:04,VALID,1001.96,VALID,0,VALID,93.614,VALID,0,VALID,23.8769,VALID,327,VALID,0,
2009-07-13, 03:41:04,VALID,1001.97,VALID,0,VALID,93.6216,VALID,0,VALID,23.8769,VALID,327,VALID,0,
2009-07-13, 03:42:04,VALID,1002,VALID,0,VALID,93.6369,VALID,0,VALID,23.8982,VALID,327,VALID,0,
2009-07-13, 03:43:04,VALID,1002.01,VALID,0,VALID,93.6521,VALID,0,VALID,23.8982,VALID,327,VALID,0,
2009-07-13, 03:44:04,VALID,1002.02,VALID,0,VALID,93.6216,VALID,0,VALID,23.8982,VALID,327,VALID,0,
2009-07-13, 03:45:04,VALID,1002.03,VALID,0,VALID,93.6369,VALID,0,VALID,23.8769,VALID,327,VALID,0,
2009-07-13, 03:46:04,VALID,1002.05,VALID,0,VALID,93.6216,VALID,0,VALID,23.8982,VALID,327,VALID,0,
2009-07-13, 03:47:04,VALID,1002.03,VALID,0,VALID,93.5606,VALID,0,VALID,23.9389,VALID,327,VALID,0,
2009-07-13, 03:48:04,VALID,1002.01,VALID,0,VALID,93.5072,VALID,0,VALID,23.9177,VALID,327,VALID,0,
2009-07-13, 03:49:04,VALID,1002.02,VALID,0,VALID,93.4233,VALID,0,VALID,23.9371,VALID,327,VALID,0,
2009-07-13, 03:50:04,VALID,1002.01,VALID,0,VALID,93.3775,VALID,0,VALID,23.9177,VALID,327,VALID,0,
2009-07-13, 03:51:04,VALID,1002,VALID,0,VALID,93.3012,VALID,0,VALID,23.9177,VALID,327,VALID,0,
2009-07-13, 03:52:04,VALID,1002,VALID,0,VALID,93.2325,VALID,0,VALID,23.9371,VALID,327,VALID,0,
2009-07-13, 03:53:04,VALID,1002.01,VALID,0,VALID,93.1791,VALID,0,VALID,23.9371,VALID,327,VALID,0,
2009-07-13, 03:54:04,VALID,1002.05,VALID,0,VALID,93.1944,VALID,0,VALID,23.9566,VALID,327,VALID,0,
2009-07-13, 03:55:04,VALID,1002.06,VALID,0,VALID,93.2097,VALID,0,VALID,23.9566,VALID,327,VALID,0,
2009-07-13, 03:56:04,VALID,1002.05,VALID,0,VALID,93.202,VALID,0,VALID,23.9159,VALID,327,VALID,0,
2009-07-13, 03:57:04,VALID,1002.07,VALID,0,VALID,93.2707,VALID,0,VALID,23.9177,VALID,327,VALID,0,
2009-07-13, 03:58:04,VALID,1002.09,VALID,0,VALID,93.3088,VALID,0,VALID,23.9371,VALID,327,VALID,0,